Weather History for Quillayute, WA

Change the Weather History Date:

Sunday, July 7, 2013

  Actual Average Record
Temperature  
Mean Temperature 63 °F 58 °F  
Max Temperature 68 °F 66 °F 92 °F (2010)
Min Temperature 57 °F 50 °F 39 °F (1971)
Degree Days  
Heating Degree Days 2 7  
Month to date heating degree days 13 52  
Since 1 June heating degree days 193 346  
Since 1 July heating degree days 13 52  
Cooling Degree Days 0 0  
Month to date cooling degree days 0 0  
Year to date cooling degree days 10 4  
Since 1 June cooling degree days 7 3  
Growing Degree Days 12 (Base 50)    
Moisture  
Dew Point 54 °F    
Average Humidity 77    
Maximum Humidity 86    
Minimum Humidity 67    
Precipitation  
Precipitation 0.00 in 0.07 in 1.60 in (1976)
Month to date precipitation 0.00 0.54  
Year to date precipitation 58.80 52.79  
Sea Level Pressure  
Sea Level Pressure 29.97 in    
Wind  
Wind Speed 3 mph (SW)    
Max Wind Speed 12 mph    
Max Gust Speed 23 mph    
Visibility 5 miles    
Events      
T = Trace of Precipitation, MM = Missing Value Source: NWS Daily Summary

Daily Weather History Graph

Daily Weather History Graph

Search for Another Location

Airport:

Trip Planner

Search our weather history database for the weather conditions in past years. The results will help you decide how hot, cold, wet, or windy it might be!

Date:

Astronomy

Jul. 07, 2013 Rise Set
Actual Time 5:27 AM PDT 9:18 PM PDT
Civil Twilight 4:47 AM PDT 9:58 PM PDT
Nautical Twilight 3:52 AM PDT 10:53 PM PDT
Astronomical Twilight 2:28 AM PDT 12:15 AM PDT
Moon 5:14 AM PDT (7/7) 8:39 PM PDT (7/7)
Length of Visible Light 17h 11m
Length of Day
15h 50m
Waning Crescent, 0% of the Moon is Illuminated
Jul 7
Waning Crescent
Jul 8
New
Jul 15
First Quarter
Jul 22
Full
Jul 29
Last Quarter

Hourly Weather History & Observations

Time (PDT) Temp. Dew Point Humidity Pressure Visibility Wind Dir Wind Speed Gust Speed Precip Events Conditions
12:53 AM 57.9 °F 53.1 °F 84% 29.95 in 5.0 mi West 5.8 mph - N/A   Haze
1:53 AM 57.9 °F 53.1 °F 84% 29.95 in 5.0 mi WNW 3.5 mph - N/A   Haze
2:53 AM 57.9 °F 53.1 °F 84% 29.94 in 5.0 mi Calm Calm - N/A   Haze
3:53 AM 57.9 °F 52.0 °F 81% 29.94 in 6.0 mi Calm Calm - N/A   Haze
4:53 AM 57.9 °F 53.1 °F 84% 29.95 in 5.0 mi Calm Calm - N/A   Haze
5:53 AM 57.9 °F 53.1 °F 84% 29.95 in 5.0 mi Calm Calm - N/A   Haze
6:53 AM 57.9 °F 53.1 °F 84% 29.96 in 4.0 mi SW 3.5 mph - N/A   Haze
7:53 AM 59.0 °F 53.1 °F 81% 29.97 in 4.0 mi SSW 4.6 mph - N/A   Haze
8:53 AM 59.0 °F 53.1 °F 81% 29.97 in 4.0 mi Calm Calm - N/A   Haze
9:53 AM 60.1 °F 54.0 °F 80% 29.98 in 5.0 mi SSW 3.5 mph - N/A   Haze
10:53 AM 61.0 °F 54.0 °F 78% 29.98 in 5.0 mi SW 5.8 mph - N/A   Haze
11:53 AM 63.0 °F 54.0 °F 72% 29.98 in 5.0 mi Calm Calm - N/A   Haze
12:53 PM 66.0 °F 55.0 °F 68% 29.98 in 6.0 mi SSW 8.1 mph - N/A   Haze
1:14 PM 66.2 °F 55.4 °F 68% 29.97 in 6.0 mi SW 6.9 mph - N/A   Haze
1:43 PM 66.2 °F 55.4 °F 68% 29.97 in 6.0 mi SW 6.9 mph - N/A   Haze
1:53 PM 66.9 °F 55.0 °F 66% 29.97 in 6.0 mi South 6.9 mph - N/A   Haze
2:53 PM 66.9 °F 55.0 °F 66% 29.97 in 6.0 mi WSW 9.2 mph - N/A   Haze
3:06 PM 66.2 °F 55.4 °F 68% 29.97 in 6.0 mi SW 8.1 mph - N/A   Haze
3:53 PM 64.0 °F 53.1 °F 67% 29.97 in 6.0 mi Variable 5.8 mph - N/A   Haze
4:24 PM 64.4 °F 53.6 °F 68% 29.96 in 6.0 mi SW 8.1 mph - N/A   Haze
4:35 PM 64.4 °F 53.6 °F 68% 29.96 in 6.0 mi WSW 11.5 mph - N/A   Haze
4:49 PM 62.6 °F 53.6 °F 72% 29.96 in 5.0 mi SW 8.1 mph - N/A   Haze
4:53 PM 63.0 °F 53.1 °F 70% 29.96 in 5.0 mi WSW 8.1 mph - N/A   Haze
5:53 PM 61.0 °F 53.1 °F 75% 29.97 in 5.0 mi WSW 5.8 mph - N/A   Haze
6:26 PM 60.8 °F 53.6 °F 77% 29.97 in 5.0 mi West 6.9 mph - N/A   Haze
6:53 PM 60.1 °F 53.1 °F 78% 29.97 in 5.0 mi SW 5.8 mph - N/A   Haze
7:53 PM 59.0 °F 53.1 °F 81% 29.97 in 4.0 mi Calm Calm - N/A   Haze
8:53 PM 57.9 °F 53.1 °F 84% 29.98 in 3.0 mi Calm Calm - N/A   Haze
9:09 PM 57.2 °F 53.6 °F 88% 29.98 in 2.5 mi WSW 3.5 mph - N/A   Overcast
9:17 PM 59.0 °F 53.6 °F 82% 29.98 in 3.0 mi Calm Calm - N/A   Haze
9:53 PM 57.9 °F 53.1 °F 84% 29.99 in 5.0 mi Calm Calm - N/A   Haze
10:53 PM 57.9 °F 53.1 °F 84% 29.99 in 5.0 mi Calm Calm - N/A   Haze
11:53 PM 57.9 °F 53.1 °F 84% 30.00 in 5.0 mi Calm Calm - N/A   Haze